Location: Bamobli
(6.6379°N, 10.9396°W)
Time: 22:21:46
(UTC+00:00)

Envisat - Pass Details

Date: 06 March 2021
Orbit: 764 x 766 km, 98.1° (Epoch: 12 April)

Event Time Altitude Azimuth Distance (km) Brightness Sun altitude
Rises 04:59:30 0° 44° (NE) 3,217 6.8 -29.3°
Reaches altitude 10° 05:02:52 10° 68° (ENE) 2,293 6.2 -28.4°
Maximum altitude 05:05:33 14° 101° (E) 1,998 6.0 -27.8°
Drops below altitude 10° 05:08:14 10° 133° (SE) 2,294 6.1 -27.1°
Sets 05:11:35 0° 157° (SSE) 3,221 6.6 -26.3°
